Weather History for Sarasota, FL

Change the Weather History Date:

Wednesday, October 29, 2014

  Actual Average Record
Temperature  
Mean Temperature 74 °F 73 °F  
Max Temperature 82 °F 82 °F 90 °F (1965)
Min Temperature 65 °F 64 °F 40 °F (1944)
Degree Days  
Heating Degree Days 0 0  
Month to date heating degree days 0 0  
Since 1 July heating degree days 0 0  
Cooling Degree Days 9 8  
Month to date cooling degree days 320 339  
Year to date cooling degree days 3319 3128  
Growing Degree Days 24 (Base 50)    
Moisture  
Dew Point 67 °F    
Average Humidity 80    
Maximum Humidity 93    
Minimum Humidity 58    
Precipitation  
Precipitation 0.00 in 0.08 in 1.47 in (1922)
Month to date precipitation 4.42 2.96  
Year to date precipitation 46.43 48.39  
Sea Level Pressure  
Sea Level Pressure 30.04 in    
Wind  
Wind Speed 6 mph (South)    
Max Wind Speed 13 mph    
Max Gust Speed 15 mph    
Visibility 10 miles    
Events      
T = Trace of Precipitation, MM = Missing Value Source: NWS Daily Summary

Daily Weather History Graph

Daily Weather History Graph

Search for Another Location

Airport:

Trip Planner

Search our weather history database for the weather conditions in past years. The results will help you decide how hot, cold, wet, or windy it might be!

Date:

Astronomy

Oct. 29, 2014 Rise Set
Actual Time 7:38 AM EDT 6:48 PM EDT
Civil Twilight 7:14 AM EDT 7:12 PM EDT
Nautical Twilight 6:47 AM EDT 7:40 PM EDT
Astronomical Twilight 6:19 AM EDT 8:07 PM EDT
Moon 12:49 PM EDT (10/29) No Moon Set
Length of Visible Light 11h 58m
Length of Day
11h 10m
Waxing Crescent, 34% of the Moon is Illuminated
Oct 29
Waxing Crescent
Oct 30
First Quarter
Nov 6
Full
Nov 14
Last Quarter
Nov 22
New

Hourly Weather History & Observations

Time (EDT) Temp. Heat Index Dew Point Humidity Pressure Visibility Wind Dir Wind Speed Gust Speed Precip Events Conditions
12:53 AM 69.1 °F - 63.0 °F 81% 30.09 in 10.0 mi ESE 6.9 mph - N/A   Clear
1:53 AM 68.0 °F - 64.0 °F 87% 30.08 in 10.0 mi SE 8.1 mph - N/A   Clear
2:53 AM 68.0 °F - 64.9 °F 90% 30.07 in 10.0 mi ESE 5.8 mph - N/A   Clear
3:53 AM 66.9 °F - 64.9 °F 93% 30.07 in 10.0 mi East 5.8 mph - N/A   Clear
4:53 AM 66.9 °F - 64.9 °F 93% 30.06 in 10.0 mi ESE 6.9 mph - N/A   Clear
5:53 AM 66.0 °F - 64.9 °F 96% 30.06 in 10.0 mi East 4.6 mph - N/A   Clear
6:53 AM 66.0 °F - 64.0 °F 93% 30.07 in 10.0 mi Calm Calm - N/A   Mostly Cloudy
7:53 AM 66.0 °F - 64.9 °F 96% 30.08 in 10.0 mi East 4.6 mph - N/A   Clear
8:53 AM 70.0 °F - 66.9 °F 90% 30.09 in 10.0 mi ESE 3.5 mph - N/A   Partly Cloudy
9:53 AM 75.9 °F - 68.0 °F 76% 30.09 in 10.0 mi SE 6.9 mph - N/A   Clear
10:53 AM 80.1 °F 82.7 °F 68.0 °F 67% 30.10 in 10.0 mi SSE 8.1 mph - N/A   Clear
11:53 AM 80.1 °F 82.3 °F 66.9 °F 64% 30.08 in 10.0 mi SW 10.4 mph - N/A   Clear
12:53 PM 81.0 °F 82.7 °F 64.9 °F 58% 30.06 in 10.0 mi SW 10.4 mph - N/A   Clear
1:53 PM 81.0 °F 83.3 °F 66.9 °F 62% 30.04 in 10.0 mi SW 9.2 mph - N/A   Scattered Clouds
2:53 PM 80.1 °F 82.3 °F 66.9 °F 64% 30.01 in 10.0 mi WSW 9.2 mph - N/A   Scattered Clouds
3:53 PM 81.0 °F 83.0 °F 66.0 °F 60% 30.00 in 10.0 mi WSW 9.2 mph - N/A   Partly Cloudy
4:53 PM 81.0 °F 83.0 °F 66.0 °F 60% 29.99 in 10.0 mi West 8.1 mph - N/A   Clear
5:53 PM 79.0 °F - 69.1 °F 72% 29.99 in 10.0 mi WNW 6.9 mph - N/A   Scattered Clouds
6:53 PM 75.9 °F - 68.0 °F 76% 29.99 in 10.0 mi WNW 5.8 mph - N/A   Clear
7:53 PM 73.9 °F - 68.0 °F 82% 29.99 in 10.0 mi NW 4.6 mph - N/A   Scattered Clouds
8:53 PM 73.9 °F - 69.1 °F 85% 30.00 in 10.0 mi NW 4.6 mph - N/A   Partly Cloudy
9:53 PM 73.9 °F - 70.0 °F 87% 30.01 in 10.0 mi North 4.6 mph - N/A   Partly Cloudy
10:53 PM 73.0 °F - 70.0 °F 90% 30.01 in 10.0 mi Calm Calm - N/A   Clear
11:53 PM 71.1 °F - 69.1 °F 93% 30.00 in 10.0 mi Calm Calm - N/A   Clear